#timestamp,LO_Frequency,Hit,StdDev 
1558483215.3,286047004.9,N
1558483235.1,286047006.9,Y
1558483255.9,286047004.4,P
1558483275.7,286047004.0,P
1558483295.5,286047003.2,P
1558483315.4,286047005.5,Y
1558483335.2,286047002.4,P
1558483355.1,286047002.8,P
1558483356.0,286047002.8,P
1558483375.8,286047000.1,N
1558483395.6,286047002.0,N
1558483415.5,286046999.8,N
1558483435.3,286047004.4,Y
1558483455.2,286047002.6,P
1558483475.9,286047002.1,P
1558483495.7,286047002.0,P
1558483515.6,286047001.4,Y
1558483535.4,286047001.0,P
1558483555.2,286047000.4,N
1558483575.1,286047002.8,P
1558483576.0,286047002.8,N
1558483595.8,286047002.2,N
1558483615.7,286047002.6,N
1558483635.5,286047002.6,N
1558483655.3,286047002.4,N
1558483675.2,286047003.8,Y
1558483695.0,286046999.9,P
1558483695.9,286046999.9,N
1558483715.8,286046999.9,N
1558483735.6,286047002.7,N
1558483755.4,286047000.4,N
1558483775.3,286047000.8,N
1558483795.1,286047000.2,N
1558483796.0,286047000.2,N
1558483815.8,286046999.8,N
1558483835.7,286047001.0,N
1558483855.5,286046998.1,N
1558483875.3,286047001.0,N
1558483895.2,286046999.7,N
1558483915.0,286047000.5,N
1558483915.9,286047000.5,N
1558483935.8,286046999.7,N
1558483955.6,286047000.3,N
1558483975.4,286047002.5,N
1558483995.3,286047001.3,N
1558484015.1,286047001.9,N
1558484035.9,286047003.6,Y
1558484055.7,286047002.0,P
1558484075.5,286047002.6,P
1558484095.4,286047001.6,N
1558484115.2,286047002.0,N
1558484135.0,286047001.8,N
1558484135.9,286047001.8,N
1558484155.8,286047001.8,Y
1558484175.6,286047001.2,P
1558484195.5,286047001.2,P
1558484215.3,286047002.8,P
1558484235.1,286047001.9,N
1558484255.9,286047004.1,Y
1558484275.7,286047000.0,P
1558484295.5,286046999.9,N
1558484315.4,286047002.5,N
1558484335.2,286047000.3,N
1558484355.1,286046998.6,N
1558484356.0,286046998.6,N
1558484375.8,286047001.2,N
1558484395.6,286046998.6,N
1558484415.5,286047000.8,N
1558484435.3,286047001.2,N
1558484455.2,286046998.9,N
1558484475.9,286046999.1,N
1558484495.7,286046998.5,N
1558484515.6,286046998.4,N
1558484535.4,286046996.6,N
1558484555.2,286046999.2,N
1558484575.1,286046998.1,N
1558484576.0,286046998.1,N
1558484595.8,286046998.9,N
1558484615.7,286046999.2,N
1558484635.5,286046998.6,N
1558484655.3,286046996.8,N
1558484675.2,286046995.4,Y
1558484695.0,286046996.4,P
1558484695.9,286046996.4,N
1558484715.7,286046990.6,P
1558484735.6,286046987.6,Y
1558484755.4,286046990.8,P
1558484775.3,286046990.4,P
1558484795.1,286046989.8,P
1558484815.8,286046986.1,Y
1558484835.7,286046992.2,P
1558484855.5,286046991.8,P
1558484875.4,286046991.3,P
1558484895.2,286046992.5,Y
1558484915.0,286046998.8,P
1558484915.9,286046998.8,N
1558484935.8,286046999.6,N
1558484955.6,286046995.4,N
1558484975.4,286046997.5,N
1558484995.3,286046995.3,N
1558485015.1,286046997.3,N
1558485035.9,286046994.5,N
1558485055.7,286046993.8,N
1558485075.5,286046994.1,N
1558485095.4,286046994.2,N
1558485115.2,286046994.3,N
1558485135.0,286046994.3,N
1558485135.9,286046994.3,N
1558485155.8,286046994.4,N
1558485175.6,286046991.9,Y
1558485195.5,286046997.3,P
1558485215.3,286046998.2,N
1558485235.1,286047000.6,N
1558485255.9,286047002.1,N
1558485275.7,286047003.2,N
1558485295.5,286047004.7,N
1558485315.4,286047007.3,N
1558485335.2,286047006.6,N
1558485355.1,286047006.2,N
1558485356.0,286047006.2,N
1558485375.8,286047008.1,N
1558485395.6,286047009.7,N
1558485415.5,286047011.7,N
1558485435.3,286047011.4,N
1558485455.1,286047013.9,N
1558485475.9,286047013.3,N
1558485495.7,286047014.5,N
1558485515.5,286047014.2,N
1558485535.4,286047016.4,N
1558485555.2,286047018.7,Y
1558485575.1,286047012.1,P
1558485576.0,286047012.1,P
1558485595.8,286047011.7,P
1558485615.6,286047011.8,Y
1558485635.5,286047002.8,P
1558485655.3,286046999.7,N
1558485675.2,286047002.7,N
1558485695.9,286047002.6,N
1558485715.7,286047002.6,N
1558485735.6,286047002.2,N
1558485755.4,286047002.1,N
1558485775.2,286047001.3,N
1558485795.1,286047001.9,N
1558485796.0,286047001.9,N
1558485815.8,286047002.1,N
1558485835.7,286047001.7,N
1558485855.5,286047004.2,N
1558485875.3,286047001.3,N
1558485895.2,286047003.2,N
1558485915.9,286047002.9,N
1558485935.7,286047004.7,N
1558485955.6,286047004.7,N
1558485975.4,286047007.2,Y
1558485995.3,286047001.3,P
1558486015.1,286047001.4,N
1558486016.0,286047001.4,N
1558486035.8,286047001.8,N
1558486055.7,286047004.2,Y
1558486075.5,286046999.8,P
1558486095.3,286047001.9,N
1558486115.2,286046999.7,N
1558486135.0,286046999.7,N
1558486135.9,286046999.7,N
1558486155.8,286047001.7,N
1558486175.6,286047004.4,Y
1558486195.4,286047002.3,P
1558486215.3,286047004.4,P
1558486235.1,286047001.9,N
1558486255.9,286047002.5,N
1558486275.7,286047001.5,N
1558486295.5,286047001.4,N
1558486315.4,286047001.7,N
1558486335.2,286047002.5,N
1558486355.0,286046999.8,N
1558486355.9,286046999.8,N
1558486375.8,286047002.6,N
1558486395.6,286047002.6,N
1558486415.4,286047002.0,N
1558486435.3,286047002.3,N
1558486455.1,286047001.9,N
1558486475.9,286047004.3,Y
1558486495.7,286047002.4,P
1558486515.5,286046999.9,N
1558486535.4,286047000.7,N
1558486555.2,286047000.6,N
1558486575.0,286047000.0,N
1558486576.0,286047000.0,N
1558486595.8,286046999.7,N
1558486615.6,286046998.3,N
1558486635.5,286047001.1,N
1558486655.3,286046999.3,N
1558486675.1,286046999.2,N
1558486695.9,286047000.8,N
1558486715.7,286046998.4,N
1558486735.5,286046999.5,N
1558486755.4,286047001.1,N
1558486775.2,286047001.2,N
1558486795.1,286047000.6,N
1558486796.0,286047000.6,N
